Date String (YYYY-MM-DD hh:mm:ss) UTC,Instrument flags,absolute air pressure of the measurement (hPa),sample flow rate (lpm),inlet stack bypass flow (lpm),air temperature of the measurement (°C),ambient temperature measured by the external sensor (°C),aerosol sample conditioner tube jacket temperature (°C),OPC LED temperature (°C),internal box temperature (°C),relative humidity of the measurement (%),span deviation,mass concentration of particles derived from Lorenz-Mie calculation of OPC scattering (μg/m³),mass concentration of particles derived from Lorenz-Mie calculation of OPC scattering (μg/m³),mass concentration of particles derived from Lorenz-Mie calculation of OPC scattering (μg/m³)
DateTimeUTC,F1_M11,P_M11,Q1_M11,Q2_M11,T1_M11,T2_M11,T3_M11,T4_M11,T5_M11,U1_M11,ZSPAN_M11,X0_M11,X2_M11,X1_M11
2024-05-27 10:00:00,SystemResetWarning,0830.8,5.01,000.00,029.8,028.9,000.0,038.1,031.4,012.7,0000.0,0006.33,0003.16,0002.48
2024-05-27 10:01:00,SystemResetWarning,0830.8,5.00,000.00,029.8,028.9,000.0,038.1,031.5,012.8,0000.0,0006.40,0003.17,0002.49
2024-05-27 10:02:00,SystemResetWarning,0830.9,5.00,000.00,029.8,028.9,000.0,038.1,031.5,012.7,0000.0,0007.41,0003.19,0002.49
2024-05-27 10:03:00,SystemResetWarning,0830.9,5.00,000.00,029.8,028.9,000.0,038.1,031.5,012.8,0000.0,0007.38,0003.18,0002.51
2024-05-27 10:04:00,SystemResetWarning,0830.9,5.00,000.00,029.8,028.9,000.0,038.1,031.5,012.8,0000.0,0007.34,0003.17,0002.52
2024-05-27 10:05:00,SystemResetWarning,0830.9,5.00,000.00,029.8,029.0,000.0,038.1,031.5,012.8,0000.0,0007.33,0003.16,0002.51
2024-05-27 10:06:00,SystemResetWarning,0830.9,5.00,000.00,029.8,029.0,000.0,038.1,031.5,012.9,0000.0,0007.30,0003.17,0002.53
2024-05-27 10:07:00,SystemResetWarning,0830.9,5.00,000.00,029.8,029.0,000.0,038.1,031.5,013.0,0000.0,0007.17,0003.15,0002.52
2024-05-27 10:08:00,SystemResetWarning,0830.9,5.00,000.00,029.8,029.0,000.0,038.1,031.5,013.0,0000.0,0006.91,0003.15,0002.52
2024-05-27 10:09:00,SystemResetWarning,0831.0,5.00,000.00,029.8,029.0,000.0,038.1,031.5,013.0,0000.0,0006.32,0003.16,0002.52
2024-05-27 10:10:00,SystemResetWarning,0831.0,5.00,000.00,029.8,029.0,000.0,038.1,031.5,013.0,0000.0,0005.84,0003.14,0002.51
2024-05-27 10:11:00,SystemResetWarning,0831.0,5.00,000.00,029.8,029.0,000.0,038.1,031.5,013.0,0000.0,0005.89,0003.13,0002.50
2024-05-27 10:12:00,SystemResetWarning,0831.0,5.00,000.00,029.8,029.0,000.0,038.1,031.5,013.0,0000.0,0006.07,0003.11,0002.49
2024-05-27 10:13:00,SystemResetWarning,0830.9,5.00,000.00,029.8,029.0,000.0,038.1,031.5,013.0,0000.0,0005.99,0003.09,0002.48
2024-05-27 10:14:00,SystemResetWarning,0830.9,5.00,000.00,029.8,029.0,000.0,038.2,031.5,013.1,0000.0,0006.08,0003.10,0002.47
2024-05-27 10:15:00,SystemResetWarning,0830.9,5.00,000.00,029.8,029.0,000.0,038.2,031.5,013.0,0000.0,0006.12,0003.10,0002.46
2024-05-27 10:16:00,SystemResetWarning,0830.9,5.00,000.00,029.8,029.0,000.0,038.2,031.5,013.1,0000.0,0006.25,0003.12,0002.46
2024-05-27 10:17:00,SystemResetWarning,0830.9,5.00,000.00,029.8,028.9,000.0,038.2,031.5,013.1,0000.0,0006.18,0003.13,0002.47
2024-05-27 10:18:00,SystemResetWarning,0830.9,5.00,000.00,029.8,028.9,000.0,038.2,031.5,013.1,0000.0,0006.75,0003.14,0002.46
2024-05-27 10:19:00,SystemResetWarning,0830.9,5.00,000.00,029.8,028.9,000.0,038.2,031.5,013.1,0000.0,0007.16,0003.19,0002.48
2024-05-27 10:20:00,SystemResetWarning,0830.9,5.00,000.00,029.8,028.9,000.0,038.2,031.5,013.1,0000.0,0007.22,0003.20,0002.49
2024-05-27 10:21:00,SystemResetWarning,0830.9,4.99,000.00,029.8,028.9,000.0,038.2,031.4,013.1,0000.0,0007.22,0003.21,0002.50
2024-05-27 10:22:00,SystemResetWarning,0830.9,5.00,000.00,029.8,028.9,000.0,038.2,031.4,013.1,0000.0,0007.20,0003.23,0002.53
2024-05-27 10:23:00,SystemResetWarning,0830.9,4.99,000.00,029.8,028.9,000.0,038.2,031.5,013.1,0000.0,0007.23,0003.24,0002.55
2024-05-27 10:24:00,SystemResetWarning,0830.9,5.00,000.00,029.8,028.9,000.0,038.2,031.5,013.0,0000.0,0006.03,0003.26,0002.57
2024-05-27 10:25:00,SystemResetWarning,0831.0,5.01,000.00,029.8,028.9,000.0,038.2,031.5,013.1,0000.0,0005.95,0003.27,0002.58
2024-05-27 10:26:00,SystemResetWarning,0831.0,5.01,000.00,029.8,028.9,000.0,038.2,031.4,013.2,0000.0,0006.08,0003.30,0002.60
2024-05-27 10:27:00,SystemResetWarning,0831.0,5.00,000.00,029.8,028.9,000.0,038.2,031.5,013.2,0000.0,0006.10,0003.31,0002.63
2024-05-27 10:28:00,SystemResetWarning,0831.1,5.00,000.00,029.8,028.9,000.0,038.2,031.4,013.2,0000.0,0006.10,0003.30,0002.63
2024-05-27 10:29:00,SystemResetWarning,0831.1,4.99,000.00,029.8,028.9,000.0,038.2,031.5,013.3,0000.0,0006.04,0003.31,0002.66
2024-05-27 10:30:00,SystemResetWarning,0831.1,5.00,000.00,029.8,028.9,000.0,038.2,031.5,013.3,0000.0,0005.53,0003.27,0002.66
2024-05-27 10:31:00,SystemResetWarning,0831.1,5.01,000.00,029.8,028.9,000.0,038.2,031.5,013.2,0000.0,0005.32,0003.25,0002.67
2024-05-27 10:32:00,SystemResetWarning,0831.1,5.01,000.00,029.8,028.9,000.0,038.2,031.5,013.3,0000.0,0005.37,0003.27,0002.68
2024-05-27 10:33:00,SystemResetWarning,0831.1,5.00,000.00,029.8,028.9,000.0,038.2,031.5,013.3,0000.0,0005.40,0003.28,0002.68
2024-05-27 10:34:00,SystemResetWarning,0831.2,4.99,000.00,029.8,028.9,000.0,038.1,031.5,013.3,0000.0,0005.38,0003.29,0002.70
2024-05-27 10:35:00,SystemResetWarning,0831.2,4.99,000.00,029.8,028.9,000.0,038.1,031.4,013.3,0000.0,0005.37,0003.29,0002.72
2024-05-27 10:36:00,SystemResetWarning,0831.1,4.99,000.00,029.8,028.9,000.0,038.1,031.4,013.3,0000.0,0005.41,0003.31,0002.73
2024-05-27 10:37:00,SystemResetWarning,0831.1,5.01,000.00,029.8,028.9,000.0,038.1,031.5,013.3,0000.0,0005.27,0003.28,0002.74
2024-05-27 10:38:00,SystemResetWarning,0831.1,5.01,000.00,029.8,028.9,000.0,038.2,031.5,013.3,0000.0,0005.23,0003.26,0002.73
2024-05-27 10:39:00,SystemResetWarning,0831.1,4.99,000.00,029.8,028.9,000.0,038.2,031.5,013.3,0000.0,0005.48,0003.28,0002.73
2024-05-27 10:40:00,SystemResetWarning,0831.1,4.99,000.00,029.8,028.9,000.0,038.2,031.5,013.3,0000.0,0005.84,0003.28,0002.73
2024-05-27 10:41:00,SystemResetWarning,0831.1,5.00,000.00,029.8,028.9,000.0,038.2,031.5,013.3,0000.0,0006.45,0003.30,0002.72
2024-05-27 10:42:00,SystemResetWarning,0831.1,5.00,000.00,029.8,028.9,000.0,038.2,031.4,013.3,0000.0,0006.57,0003.32,0002.73
2024-05-27 10:43:00,SystemResetWarning,0831.2,5.01,000.00,029.8,028.9,000.0,038.2,031.4,013.3,0000.0,0006.59,0003.32,0002.74
2024-05-27 10:44:00,SystemResetWarning,0831.2,5.01,000.00,029.8,028.9,000.0,038.2,031.4,013.3,0000.0,0007.30,0003.31,0002.74
2024-05-27 10:45:00,SystemResetWarning,0831.2,5.00,000.00,029.8,028.9,000.0,038.2,031.5,013.3,0000.0,0007.48,0003.32,0002.73
2024-05-27 10:46:00,SystemResetWarning,0831.3,4.99,000.00,029.8,028.9,000.0,038.2,031.5,013.3,0000.0,0007.45,0003.31,0002.72
2024-05-27 10:47:00,SystemResetWarning,0831.2,4.99,000.00,029.8,028.9,000.0,038.2,031.5,013.3,0000.0,0007.45,0003.30,0002.70
2024-05-27 10:48:00,SystemResetWarning,0831.2,4.99,000.00,029.8,028.9,000.0,038.2,031.5,013.3,0000.0,0007.47,0003.32,0002.73
2024-05-27 10:49:00,SystemResetWarning,0831.2,5.01,000.00,029.8,028.9,000.0,038.1,031.5,013.3,0000.0,0007.64,0003.38,0002.77
2024-05-27 10:50:00,SystemResetWarning,0831.2,5.01,000.00,029.8,028.9,000.0,038.2,031.5,013.3,0000.0,0007.60,0003.38,0002.79
2024-05-27 10:51:00,SystemResetWarning,0831.2,5.00,000.00,029.8,028.9,000.0,038.2,031.5,013.3,0000.0,0007.47,0003.43,0002.80
2024-05-27 10:52:00,SystemResetWarning,0831.2,5.00,000.00,029.8,028.9,000.0,038.2,031.5,013.3,0000.0,0007.56,0003.47,0002.82
2024-05-27 10:53:00,SystemResetWarning,0831.3,4.99,000.00,029.8,028.9,000.0,038.2,031.5,013.3,0000.0,0008.01,0003.48,0002.86
2024-05-27 10:54:00,SystemResetWarning,0831.2,4.99,000.00,029.8,028.9,000.0,038.2,031.5,013.3,0000.0,0008.07,0003.49,0002.88
2024-05-27 10:55:00,SystemResetWarning,0831.3,4.99,000.00,029.8,028.9,000.0,038.2,031.5,013.3,0000.0,0008.10,0003.53,0002.91
2024-05-27 10:56:00,SystemResetWarning,0831.3,5.01,000.00,029.8,028.9,000.0,038.2,031.4,013.3,0000.0,0008.62,0003.55,0002.93
2024-05-27 10:57:00,SystemResetWarning,0831.3,5.01,000.00,029.8,028.9,000.0,038.1,031.4,013.3,0000.0,0008.66,0003.57,0002.94
2024-05-27 10:58:00,SystemResetWarning,0831.3,5.00,000.00,029.8,028.9,000.0,038.2,031.4,013.3,0000.0,0008.64,0003.56,0002.98
2024-05-27 10:59:00,SystemResetWarning,0831.3,5.00,000.00,029.8,028.9,000.0,038.1,031.4,013.3,0000.0,0008.65,0003.57,0002.98
